OV1-10 R/B, 2621

Orbit data source: Space-Track

OV1-10 R/B, 2621 is space debris in LEO originally from a launch on Sun, 11 Dec 1966 UTC launched from the Air Force Western Test Range (AFWTR). Debris objects in space refer to the collection of defunct objects orbiting the Earth. Examples of debris include non-operational satellites, rocket bodies, and fragments generated from explosions, collisions, or faulty payload assembly.

Loading next visibility...
OV1-10 R/B details
Identifier
2621, 1966-111C
Orbit
LEO
Last TLE update7 hours ago
Origin
Flag of USUSAF OAR (US)
ManufacturerABL
MissionSpacecraft
Bus & MotorALTAIR, Unknown motor
Mass125 kg wet, 125 kg dry
Launch date (UTC)
1966-12-11 (58 years ago)
Launch vehicleUnknown
Launch site
Air Force Western Test Range (AFWTR)
Object type
Payload
Rocket body
Debris
Shape & HBRCyl, 2.1 m
Radar Cross Section1.347 m², Large (>1 m²)

Expand to show TLE details & history

TLE from 7 hours ago
0 OV1-10 R/B
1  2621U 66111C   25037.80542196  .00002766  00000-0  32116-3 0  9995
2  2621  93.4031 353.2515 0058740  30.1906 330.2680 14.84275353121996
Epoch: 2025-02-06T19:19Z
Definitive object data (Epoch: 2025-02-06T19:19:48.457Z)
Latitude-0.00009°
Longitude-73.87713°
Altitude583.363 km
Speed7.588 km/s
True Right ascension23h 33m 00s
True Declination0° 00' 00"
Sunlit
Object was in daylight at TLE epoch
Visualization TLE readout
Latitude-22.31802°
Longitude104.86313°
Altitude665.205 km
Speed7.501 km/s
Apparent Right ascension13h 42m 19s
Apparent Declination-37° 34' 52"
Sunlit
Object is in full shadow
Visualization observer readout
Local Sidereal Time04:51:56
Azimuth101.962° ESE
Elevation-53.391°
Doppler factor1
Orbital elements
Apogee altitude653.816 km
Perigee altitude571.687 km
Semi-major axis6,990.888 km
Eccentricity0.005874
Inclination93.4031°
RAAN353.2515°
Arg. of periapsis30.1906°
True anomaly329.93204°
Mean anomaly330.268°
Eccentric anomaly330.10023°
Mean motion3.71317 °/min
BSTAR0.00032116
Orbital period96.95 mins
Loading maneuver chart data...
Loading historical data...
Loading historical data...
Loading historical data...
Loading historical data...
Loading historical data...
Loading historical data...
Loading historical data...
Other satellites on launch #111 in the year 1966 (1966-12-11 UTC)

OV1-10 R/B Visibility forecast

Observer location: undefined°, undefined

Span
Click to sort rows by Start time (UTC) header in descending order
Start Az.
Max El. time (UTC)
Max El. Az.
Max El.
End time (UTC)
End Az.
7 mins2025-02-07 08:50:29.576Z30.386° NE2025-02-07 08:54:29.576Z102.196° ESE26.663°2025-02-07 08:57:29.576Z150.07° SSE
5 mins2025-02-07 10:28:29.576Z320.588° NNW2025-02-07 10:30:29.576Z284.648° WNW20.343°2025-02-07 10:33:29.576Z238.785° WSW
6 mins2025-02-07 21:21:29.576Z190.854° SSW2025-02-07 21:23:29.576Z250.457° W41.418°2025-02-07 21:27:29.576Z345.983° N
|